ELECTRON KICK STAGE R/B, 60085

Orbit data source: Space-Track

ELECTRON KICK STAGE R/B, 60085 is space debris in SSO originally from a launch on Thu, 20 Jun 2024 UTC via an Electron launch vehicle from the Rocket Lab Launch Complex (RLLC). Debris objects in space refer to the collection of defunct objects orbiting the Earth. Examples of debris include non-operational satellites, rocket bodies, and fragments generated from explosions, collisions, or faulty payload assembly.

Loading next visibility...
Identifier
60085, 2024-114G
Orbit
SSO
Country
Flag of USUS
Related business
Manufacturer
Rocket Lab
Mission
Operational spacecraft
Bus & Motor
KICK STAGE, CURIE
Mass
~50 kg wet, ~50 kg dry
Launch date (UTC)
2024-06-20 (1 year ago)
Launch vehicle
Electron
Launch site
Rocket Lab Launch Complex (RLLC)
Object type
Payload
Rocket body
Debris
Shape & HBR
Trunc Cone, 0.7 m
Radar Cross Section
0.760 m², Medium (>0.1 m² and < 1m²)

Expand to show TLE details & history
Last TLE update: 19 hours ago

TLE from 19 hours ago
0 ELECTRON KICK STAGE R/B
1 60085U 24114G   25258.04517979  .00005937  00000-0  36075-3 0  9993
2 60085  97.9803 295.5980 0070338 316.7637  42.8081 15.08814802 67822
Epoch: 2025-09-15T01:05Z
TLE epoch observation values (Epoch: 2025-09-15T01:05:03.533Z)
Latitude
-0.00009°
Longitude
-74.92218°
Altitude
507.332 km
Speed
7.63 km/s
True Right ascension
19h 42m 23s
True Declination
0° 00' 00"
Sunlit
Object was in full shadow at epoch
Visualization orbit readout
Latitude
Unknown
Longitude
Unknown
Altitude
Unknown
Speed
Unknown
Apparent Right ascension
Unknown
Apparent Declination
Unknown
Sunlit
N/A
Visualization observer readout
Local Sidereal Time
12:26:47
Azimuth
Unknown
Elevation
Unknown
Doppler factor
Unknown
Orbital elements
Apogee altitude
585.465 km
Perigee altitude
488.188 km
Semi-major axis
6,914.963 km
Eccentricity
0.00703
Inclination
97.9803°
RAAN
295.598°
Arg. of periapsis
316.7637°
True anomaly
43.35937°
Mean anomaly
42.8081°
Eccentric anomaly
43.08338°
Mean motion
3.77449 °/min
Orbital period
95.38 mins
BSTAR
0.00036075
Loading maneuver chart data...
Computing Atmospheric mass density...
Loading historical data...
Loading historical data...
Loading historical data...
Loading historical data...
Loading historical data...
Loading historical data...
Loading historical data...

Documentation

Showing up to 5 results
|